KK4PWJ-13 Weather Reports


Display with metric or nautical units.
time (UTC)temp
F
wind
direction
speed
MPH
gust
MPH
rain 1hr
in
rain 24hr
in
rain mn
in
humidity
%
barometer
mb
20260510151808 73 147 0.0 1.0 0.00 0.00 0.00 52 1014.2
20260510151306 73 169 1.0 2.0 0.00 0.00 0.00 52 1014.1
20260510150801 72 168 2.0 2.0 0.00 0.00 0.00 54 1013.9
20260510150257 72 177 0.0 1.0 0.00 0.00 0.00 57 1014.1
20260510145753 72 177 0.0 1.0 0.00 0.00 0.00 61 1013.9
20260510145251 72 177 0.0 1.0 0.00 0.00 0.00 59 1013.9
20260510144747 71 177 0.0 1.0 0.00 0.00 0.00 57 1014.0
20260510144244 71 189 0.0 1.0 0.00 0.00 0.00 69 1013.6
20260510143743 71 154 1.0 1.0 0.00 0.00 0.00 69 1014.0
20260510143240 70 137 0.0 1.0 0.00 0.00 0.00 65 1013.9
20260510142736 69 136 1.0 1.0 0.00 0.00 0.00 66 1013.7
20260510142233 69 136 0.0 0.0 0.00 0.00 0.00 70 1013.7
20260510141730 69 137 1.0 1.0 0.00 0.00 0.00 67 1013.9
20260510141229 69 121 0.0 0.0 0.00 0.00 0.00 70 1013.9
20260510140726 68 107 0.0 1.0 0.00 0.00 0.00 75 1014.0
20260510140225 67 107 0.0 1.0 0.00 0.00 0.00 75 1013.9
20260510135720 67 106 0.0 2.0 0.00 0.00 0.00 80 1013.7
20260510135216 66 106 0.0 0.0 0.00 0.00 0.00 86 1013.9
20260510134714 66 106 0.0 0.0 0.00 0.00 0.00 86 1013.9
20260510134211 66 106 0.0 0.0 0.00 0.00 0.00 87 1013.9
20260510133706 65 106 0.0 0.0 0.00 0.00 0.00 89 1014.0
20260510133202 65 106 0.0 0.0 0.00 0.00 0.00 90 1013.9
20260510132658 64 106 0.0 0.0 0.00 0.00 0.00 92 1013.7
20260510132156 63 107 0.0 0.0 0.00 0.00 0.00 95 1014.0
20260510131653 62 107 0.0 0.0 0.00 0.00 0.00 97 1013.9
20260510131151 61 106 0.0 0.0 0.00 0.00 0.00 97 1013.8
20260510130647 61 106 0.0 0.0 0.00 0.00 0.00 98 1013.7
20260510130144 60 106 0.0 1.0 0.00 0.00 0.00 98 1013.8
20260510125640 59 106 0.0 0.0 0.00 0.00 0.00 99 1013.7
20260510125137 59 106 0.0 0.0 0.00 0.00 0.00 99 1013.6
20260510124634 58 106 0.0 0.0 0.00 0.00 0.00 99 1013.7
20260510124131 58 106 0.0 0.0 0.00 0.00 0.00 99 1013.7
20260510123626 57 106 0.0 0.0 0.00 0.00 0.00 99 1013.5
20260510123122 57 106 0.0 0.0 0.00 0.00 0.00 99 1013.4
20260510122618 57 106 0.0 0.0 0.00 0.00 0.00 99 1013.4
20260510122114 56 106 0.0 0.0 0.00 0.00 0.00 99 1013.2
20260510121611 56 106 0.0 0.0 0.00 0.00 0.00 99 1013.2
20260510121108 55 106 0.0 0.0 0.00 0.00 0.00 99 1012.8
20260510120607 55 106 0.0 0.0 0.00 0.00 0.00 99 1013.2
20260510115558 55 106 0.0 0.0 0.00 0.00 0.00 99 1012.8
20260510115056 55 106 0.0 0.0 0.00 0.00 0.00 99 1012.9
20260510114551 54 106 0.0 0.0 0.00 0.00 0.00 99 1013.0
20260510114048 54 106 0.0 0.0 0.00 0.00 0.00 99 1012.9
20260510113543 54 106 0.0 0.0 0.00 0.00 0.00 99 1012.7
20260510113041 54 106 0.0 0.0 0.00 0.00 0.00 99 1013.0
20260510112537 54 106 0.0 0.0 0.00 0.00 0.00 99 1012.8
20260510112034 54 106 0.0 0.0 0.00 0.00 0.00 99 1012.4
20260510111531 54 106 0.0 0.0 0.00 0.00 0.00 99 1012.5
20260510111026 54 106 0.0 0.0 0.00 0.00 0.00 99 1012.3
20260510110522 54 106 0.0 0.0 0.00 0.00 0.00 99 1012.3
20260510110019 54 106 0.0 0.0 0.00 0.00 0.00 99 1012.2
20260510105514 54 106 0.0 0.0 0.00 0.00 0.00 99 1012.1
20260510105009 54 106 0.0 0.0 0.00 0.00 0.00 99 1012.3
20260510104506 54 106 0.0 0.0 0.00 0.00 0.00 99 1012.0
20260510104003 54 106 0.0 0.0 0.00 0.00 0.00 99 1011.8
20260510103500 54 106 0.0 0.0 0.00 0.00 0.00 99 1011.8
20260510102955 54 106 0.0 0.0 0.00 0.00 0.00 99 1011.8
20260510102451 54 106 0.0 0.0 0.00 0.00 0.00 99 1011.7
20260510101948 54 106 0.0 0.0 0.00 0.00 0.00 99 1011.6
20260510101446 55 106 0.0 0.0 0.00 0.00 0.00 99 1011.5
20260510100944 55 106 0.0 0.0 0.00 0.00 0.00 99 1011.4
20260510100440 55 106 0.0 0.0 0.00 0.00 0.00 99 1011.3
20260510095937 55 106 0.0 0.0 0.00 0.00 0.00 99 1011.2
20260510095432 55 106 0.0 0.0 0.00 0.00 0.00 99 1011.2
20260510094931 55 106 0.0 0.0 0.00 0.00 0.00 99 1011.2
20260510094426 55 106 0.0 0.0 0.00 0.00 0.00 99 1011.2
20260510093923 55 106 0.0 0.0 0.00 0.00 0.00 99 1011.1
20260510093418 55 106 0.0 0.0 0.00 0.00 0.00 99 1010.8
20260510092915 55 106 0.0 0.0 0.00 0.00 0.00 99 1011.1
20260510092413 55 106 0.0 0.0 0.00 0.00 0.00 99 1010.8
20260510091912 55 106 0.0 0.0 0.00 0.00 0.00 99 1010.9
20260510091409 56 106 0.0 0.0 0.00 0.00 0.00 99 1010.9
20260510090906 56 106 0.0 0.0 0.00 0.00 0.00 99 1010.8
20260510090403 56 106 0.0 0.0 0.00 0.00 0.00 99 1010.8
20260510085858 55 106 0.0 0.0 0.00 0.00 0.00 99 1010.8
20260510085354 55 106 0.0 0.0 0.00 0.00 0.00 98 1010.9
20260510084849 55 106 0.0 0.0 0.00 0.00 0.00 98 1010.8
20260510084347 56 106 0.0 0.0 0.00 0.00 0.00 98 1010.7
20260510083843 56 106 0.0 0.0 0.00 0.00 0.00 98 1010.6
20260510083340 56 106 0.0 0.0 0.00 0.00 0.00 98 1010.5
20260510082835 56 106 0.0 0.0 0.00 0.00 0.00 98 1010.4
20260510082333 56 106 0.0 0.0 0.00 0.00 0.00 98 1010.5
20260510081831 56 106 0.0 0.0 0.00 0.00 0.00 98 1010.6
20260510081328 56 106 0.0 0.0 0.00 0.00 0.00 98 1010.6
20260510080824 56 106 0.0 0.0 0.00 0.00 0.00 98 1010.5
20260510080319 56 106 0.0 0.0 0.00 0.00 0.00 98 1010.4
20260510075817 57 106 0.0 0.0 0.00 0.00 0.00 98 1010.4
20260510075314 57 106 0.0 0.0 0.00 0.00 0.00 98 1010.4
20260510074810 57 106 0.0 0.0 0.00 0.00 0.00 98 1010.5
20260510074308 57 106 0.0 0.0 0.00 0.00 0.00 99 1010.5
20260510073803 57 106 0.0 0.0 0.00 0.00 0.00 99 1010.4
20260510073259 57 106 0.0 0.0 0.00 0.00 0.00 98 1010.4
20260510072755 57 106 0.0 0.0 0.00 0.00 0.00 98 1010.4
20260510072252 57 106 0.0 0.0 0.00 0.00 0.00 98 1010.5
20260510071748 57 106 0.0 0.0 0.00 0.00 0.00 98 1010.3
20260510071245 57 106 0.0 0.0 0.00 0.00 0.00 98 1010.2
20260510070744 57 106 0.0 0.0 0.00 0.00 0.00 98 1010.2
20260510070241 57 106 0.0 0.0 0.00 0.00 0.00 98 1010.2
20260510065740 56 106 0.0 0.0 0.00 0.00 0.00 98 1010.2
20260510065237 56 106 0.0 0.0 0.00 0.00 0.00 98 1010.2
20260510064734 57 106 0.0 0.0 0.00 0.00 0.00 98 1010.2
20260510064232 57 106 0.0 0.0 0.00 0.00 0.00 98 1010.1
20260510063728 57 106 0.0 0.0 0.00 0.00 0.00 98 1010.1
20260510063224 57 106 0.0 0.0 0.00 0.00 0.00 98 1010.2
20260510062721 57 106 0.0 0.0 0.00 0.00 0.00 98 1010.2
20260510062217 57 106 0.0 0.0 0.00 0.00 0.00 98 1010.1
20260510061712 57 106 0.0 0.0 0.00 0.00 0.00 97 1010.0
20260510061210 57 106 0.0 0.0 0.00 0.00 0.00 97 1010.0
20260510060706 57 106 0.0 0.0 0.00 0.00 0.00 97 1009.9
20260510060203 57 106 0.0 0.0 0.00 0.00 0.00 98 1010.1
20260510055659 57 106 0.0 0.0 0.00 0.00 0.00 97 1010.2
20260510055157 57 106 0.0 0.0 0.00 0.00 0.00 97 1010.4
20260510054652 57 106 0.0 0.0 0.00 0.00 0.00 97 1010.6
20260510054148 57 106 0.0 0.0 0.00 0.00 0.00 97 1010.5
20260510053647 57 106 0.0 0.0 0.00 0.00 0.00 97 1010.4
20260510053145 57 106 0.0 0.0 0.00 0.00 0.00 97 1010.5
20260510052640 58 106 0.0 0.0 0.00 0.00 0.00 97 1010.4
20260510052137 58 106 0.0 0.0 0.00 0.00 0.00 98 1010.4
20260510051632 58 106 0.0 0.0 0.00 0.00 0.00 98 1010.8
20260510051129 58 106 0.0 0.0 0.00 0.00 0.00 98 1010.6
20260510050626 58 106 0.0 0.0 0.00 0.00 0.00 98 1010.6
20260510050124 58 106 0.0 0.0 0.00 0.00 0.00 98 1010.7
20260510045620 58 106 0.0 0.0 0.00 0.00 0.00 98 1010.7
20260510045117 58 106 0.0 0.0 0.00 0.00 0.00 98 1010.8
20260510044613 58 106 0.0 0.0 0.00 0.00 0.00 98 1010.8
20260510044111 58 106 0.0 0.0 0.00 0.00 0.00 98 1010.8
20260510043606 58 106 0.0 0.0 0.00 0.00 0.00 97 1010.6
20260510043102 58 106 0.0 0.0 0.00 0.00 0.00 97 1010.8
20260510042601 58 106 0.0 0.0 0.00 0.00 0.00 97 1010.8
20260510042056 58 106 0.0 0.0 0.00 0.00 0.00 97 1010.7
20260510041553 58 106 0.0 0.0 0.00 0.00 0.00 97 1010.7
20260510041051 58 106 0.0 0.0 0.00 0.00 0.00 97 1010.6
20260510040548 58 106 0.0 0.0 0.00 0.00 0.00 97 1010.8
20260510040043 58 106 0.0 0.0 0.00 0.00 0.00 97 1010.6
20260510035540 58 106 0.0 0.0 0.00 0.00 0.00 96 1010.8
20260510035039 58 106 0.0 0.0 0.00 0.00 0.00 97 1010.7
20260510034538 58 106 0.0 0.0 0.00 0.00 0.00 96 1010.8
20260510034035 58 106 0.0 0.0 0.00 0.00 0.00 96 1010.7
20260510033530 59 106 0.0 0.0 0.00 0.00 0.00 96 1010.6
20260510033029 59 106 0.0 0.0 0.00 0.00 0.00 96 1010.6
20260510032525 59 106 0.0 0.0 0.00 0.00 0.00 96 1010.6
20260510032020 59 106 0.0 0.0 0.00 0.00 0.00 96 1010.6
20260510031516 59 106 0.0 0.0 0.00 0.00 0.00 96 1010.6
20260510031012 59 106 0.0 0.0 0.00 0.00 0.00 96 1010.5
20260510030508 59 106 0.0 0.0 0.00 0.00 0.00 96 1010.4
20260510030005 59 106 0.0 0.0 0.00 0.00 0.00 96 1010.5
20260510025502 59 106 0.0 0.0 0.00 0.00 0.00 96 1010.6
20260510024959 59 106 0.0 0.0 0.00 0.00 0.00 96 1010.3
20260510024456 59 106 0.0 0.0 0.00 0.00 0.00 96 1010.6
20260510023952 59 106 0.0 0.0 0.00 0.00 0.00 96 1010.5
20260510023448 60 106 0.0 0.0 0.00 0.00 0.00 96 1010.5
20260510022945 60 106 0.0 0.0 0.00 0.00 0.00 96 1010.5
20260510022444 60 106 0.0 0.0 0.00 0.00 0.00 96 1010.5
20260510021943 60 106 0.0 0.0 0.00 0.00 0.00 95 1010.6
20260510021441 60 106 0.0 0.0 0.00 0.00 0.00 95 1010.6
20260510020939 60 106 0.0 0.0 0.00 0.00 0.00 95 1010.4
20260510020438 60 106 0.0 0.0 0.00 0.00 0.00 96 1010.2
20260510015934 60 106 0.0 0.0 0.00 0.00 0.00 96 1010.3
20260510015430 60 106 0.0 0.0 0.00 0.00 0.00 95 1010.5
20260510014925 60 106 0.0 0.0 0.00 0.00 0.00 95 1010.2
20260510014423 60 106 0.0 0.0 0.00 0.00 0.00 94 1009.9
20260510013920 61 106 0.0 0.0 0.00 0.00 0.00 94 1010.0
20260510013414 61 106 0.0 0.0 0.00 0.00 0.00 94 1009.9
20260510012910 61 106 0.0 0.0 0.00 0.00 0.00 94 1009.7
20260510012405 61 106 0.0 0.0 0.00 0.00 0.00 94 1009.5
20260510011900 62 106 0.0 0.0 0.00 0.00 0.00 94 1009.5
20260510011355 62 106 0.0 0.0 0.00 0.00 0.00 93 1009.1
20260510010852 62 106 0.0 0.0 0.00 0.00 0.00 92 1009.4
20260510010349 63 106 0.0 0.0 0.00 0.00 0.00 92 1009.2
20260510005846 63 106 0.0 0.0 0.00 0.00 0.00 91 1009.2
20260510005342 63 106 0.0 0.0 0.00 0.00 0.00 90 1009.0
20260510004840 64 106 0.0 0.0 0.00 0.00 0.00 90 1009.3
20260510004337 64 106 0.0 0.0 0.00 0.00 0.00 89 1009.2
20260510003835 64 106 0.0 0.0 0.00 0.00 0.00 89 1009.1
20260510003332 65 106 0.0 0.0 0.00 0.00 0.00 88 1009.1
20260510002830 65 106 0.0 0.0 0.00 0.00 0.00 87 1008.9
20260510002328 66 106 0.0 0.0 0.00 0.00 0.00 87 1009.0
20260510001824 66 106 0.0 0.0 0.00 0.00 0.00 86 1009.0
20260510001322 66 106 0.0 0.0 0.00 0.00 0.00 86 1008.8
20260510000818 67 106 0.0 0.0 0.00 0.00 0.00 85 1008.9
20260510000318 67 106 0.0 0.0 0.00 0.00 0.00 83 1008.9
20260509235813 68 106 0.0 0.0 0.00 0.00 0.00 82 1008.6
20260509235309 68 106 0.0 0.0 0.00 0.00 0.00 81 1008.7
20260509234805 68 106 0.0 0.0 0.00 0.00 0.00 82 1008.7
20260509234302 69 107 0.0 0.0 0.00 0.00 0.00 79 1008.6
20260509233800 69 107 0.0 0.0 0.00 0.00 0.00 77 1008.6
20260509233257 69 107 0.0 0.0 0.00 0.00 0.00 79 1008.2
20260509232753 69 107 0.0 0.0 0.00 0.00 0.00 79 1008.1
20260509232251 69 107 0.0 0.0 0.00 0.00 0.00 79 1008.3
20260509231747 70 107 0.0 1.0 0.00 0.00 0.00 79 1008.4
20260509231244 70 107 0.0 0.0 0.00 0.00 0.00 74 1008.5
20260509230741 70 123 0.0 0.0 0.00 0.00 0.00 76 1008.2
20260509230238 70 122 0.0 0.0 0.00 0.00 0.00 75 1008.1
20260509225733 71 122 0.0 0.0 0.00 0.00 0.00 75 1008.0
20260509225230 71 124 0.0 0.0 0.00 0.00 0.00 75 1008.1
20260509224725 71 124 0.0 1.0 0.00 0.00 0.00 72 1008.2
20260509224223 71 124 0.0 0.0 0.00 0.00 0.00 73 1008.1
20260509223719 71 124 0.0 0.0 0.00 0.00 0.00 72 1008.0
20260509223217 71 124 0.0 0.0 0.00 0.00 0.00 71 1008.0
20260509222713 72 124 0.0 1.0 0.00 0.00 0.00 71 1008.1
20260509222209 71 124 0.0 0.0 0.00 0.00 0.00 71 1008.4
20260509221705 71 123 0.0 1.0 0.00 0.00 0.00 69 1008.2
20260509221201 72 143 1.0 1.0 0.00 0.00 0.00 70 1008.2
20260509220657 72 144 0.0 1.0 0.00 0.00 0.00 69 1008.1
20260509220154 72 89 1.0 1.0 0.00 0.00 0.00 68 1008.0
20260509215649 72 178 0.0 1.0 0.00 0.00 0.00 67 1008.1
20260509215146 72 131 1.0 1.0 0.00 0.00 0.00 69 1008.2
20260509214643 72 156 0.0 1.0 0.00 0.00 0.00 68 1008.2
20260509214140 72 187 0.0 2.0 0.00 0.00 0.00 69 1008.1
20260509213637 72 137 0.0 2.0 0.00 0.00 0.00 68 1008.1
20260509213133 72 60 0.0 0.0 0.00 0.00 0.00 69 1008.1
20260509212631 73 56 1.0 2.0 0.00 0.00 0.00 66 1008.1
20260509212127 72 214 0.0 1.0 0.00 0.00 0.00 67 1007.9
20260509211623 72 244 2.0 2.0 0.00 0.00 0.00 67 1008.1
20260509211120 71 142 0.0 2.0 0.00 0.00 0.00 69 1008.0
20260509210616 72 92 1.0 2.0 0.00 0.00 0.00 69 1008.0
20260509210114 72 88 0.0 0.0 0.00 0.00 0.00 71 1007.7
20260509205608 72 88 0.0 1.0 0.00 0.00 0.00 71 1007.8
20260509205103 73 88 0.0 0.0 0.00 0.00 0.00 70 1007.9
20260509204559 72 87 0.0 1.0 0.00 0.00 0.00 68 1008.0
20260509204056 72 172 1.0 1.0 0.00 0.00 0.00 71 1008.1
20260509203552 72 94 0.0 0.0 0.00 0.00 0.00 69 1007.9
20260509203051 72 95 0.0 0.0 0.00 0.00 0.00 71 1008.0
20260509202550 72 95 0.0 0.0 0.00 0.00 0.00 69 1007.9
20260509202046 72 97 0.0 1.0 0.00 0.00 0.00 68 1008.1
20260509201541 72 114 2.0 3.0 0.00 0.00 0.00 68 1008.0
20260509201040 72 143 0.0 2.0 0.00 0.00 0.00 68 1008.0
20260509200538 72 151 1.0 2.0 0.00 0.00 0.00 67 1008.2
20260509200036 71 108 1.0 1.0 0.00 0.00 0.00 71 1008.2
20260509195531 71 138 0.0 2.0 0.00 0.00 0.00 69 1008.2
20260509195031 71 124 1.0 1.0 0.00 0.00 0.00 69 1008.2
20260509194526 71 77 0.0 1.0 0.00 0.00 0.00 67 1008.4
20260509194024 71 75 1.0 1.0 0.00 0.00 0.00 67 1008.3
20260509193524 71 58 0.0 0.0 0.00 0.00 0.00 69 1008.5
20260509193022 72 168 1.0 2.0 0.00 0.00 0.00 68 1008.4
20260509192518 72 181 0.0 1.0 0.00 0.00 0.00 69 1008.4
20260509192013 71 149 0.0 0.0 0.00 0.00 0.00 69 1008.4
20260509191508 72 131 0.0 1.0 0.00 0.00 0.00 65 1008.7
20260509191003 72 137 0.0 1.0 0.00 0.00 0.00 66 1008.7
20260509190500 71 170 0.0 0.0 0.00 0.00 0.00 67 1008.6
20260509185958 71 61 0.0 2.0 0.00 0.00 0.00 66 1008.6
20260509185455 72 118 0.0 1.0 0.00 0.00 0.00 66 1008.5
20260509184952 73 175 0.0 1.0 0.00 0.00 0.00 61 1008.4
20260509184450 74 212 1.0 2.0 0.00 0.00 0.00 59 1008.5
20260509183947 74 304 1.0 3.0 0.00 0.00 0.00 61 1008.7
20260509183447 74 239 1.0 4.0 0.00 0.00 0.00 67 1008.6
20260509182943 73 135 1.0 2.0 0.00 0.00 0.00 65 1008.8
20260509182440 73 139 1.0 2.0 0.00 0.00 0.00 63 1008.6
20260509181937 73 101 0.0 1.0 0.00 0.00 0.00 64 1008.8
20260509181435 73 274 0.0 1.0 0.00 0.00 0.00 63 1008.9
20260509180932 73 151 0.0 1.0 0.00 0.00 0.00 65 1009.0
20260509180427 75 267 0.0 3.0 0.00 0.00 0.00 59 1008.9
20260509175925 73 266 1.0 2.0 0.00 0.00 0.00 61 1009.0
20260509175421 72 129 0.0 2.0 0.00 0.00 0.00 66 1009.1
20260509174917 72 114 1.0 1.0 0.00 0.00 0.00 63 1009.2
20260509174413 71 122 1.0 2.0 0.00 0.00 0.00 64 1009.5
20260509173910 73 148 1.0 2.0 0.00 0.00 0.00 60 1009.2
20260509173409 73 138 0.0 2.0 0.00 0.00 0.00 60 1009.4
20260509172906 72 161 1.0 2.0 0.00 0.00 0.00 61 1009.5
20260509172403 71 158 0.0 2.0 0.00 0.00 0.00 62 1009.5
20260509171859 71 149 2.0 2.0 0.00 0.00 0.00 63 1009.7
20260509171355 71 94 1.0 2.0 0.00 0.00 0.00 61 1009.8
20260509170851 71 154 1.0 1.0 0.00 0.00 0.00 62 1009.9
20260509170347 72 135 2.0 3.0 0.00 0.00 0.00 61 1009.9
20260509165842 71 73 1.0 2.0 0.00 0.00 0.00 59 1009.8
20260509165336 71 146 0.0 2.0 0.00 0.00 0.00 60 1010.0
20260509164833 70 111 2.0 3.0 0.00 0.00 0.00 60 1010.2
20260509164329 70 150 2.0 3.0 0.00 0.00 0.00 61 1010.1
20260509163825 71 134 0.0 2.0 0.00 0.00 0.00 60 1010.3
20260509163322 71 156 0.0 3.0 0.00 0.00 0.00 59 1010.4
20260509162822 72 245 0.0 1.0 0.00 0.00 0.00 59 1010.4
20260509162320 71 141 2.0 3.0 0.00 0.00 0.00 56 1010.3
20260509161817 71 191 1.0 3.0 0.00 0.00 0.00 59 1010.2
20260509161313 71 164 1.0 4.0 0.00 0.00 0.00 60 1010.0
20260509160808 70 193 0.0 1.0 0.00 0.00 0.00 62 1010.2
20260509160305 70 143 2.0 4.0 0.00 0.00 0.00 60 1010.3
20260509155800 69 139 0.0 6.0 0.00 0.00 0.00 63 1010.2
20260509155257 69 148 2.0 4.0 0.00 0.00 0.00 63 1010.3
20260509154753 69 86 1.0 3.0 0.00 0.00 0.00 64 1010.5
20260509154250 69 134 1.0 3.0 0.00 0.00 0.00 64 1010.4
20260509153747 68 151 1.0 2.0 0.00 0.00 0.00 66 1010.6
20260509153243 68 336 1.0 2.0 0.00 0.00 0.00 65 1010.3
20260509152739 68 59 1.0 2.0 0.00 0.00 0.00 63 1010.1
20260509152236 68 309 1.0 2.0 0.00 0.00 0.00 66 1010.1